H1 CPF 2 NER 2023 5 15 9 135 01 glonass143 H2 2007501 9143 46805 2023 5 15 0 0 0 2023 5 18 23 45 0 900 1 1 0 0 0 1 H9 10 0 60079 0.00000 0 8045268.833 10125320.832 22000069.360 10 0 60079 900.00000 0 5291482.250 10285959.881 22746430.972 10 0 60079 1800.00000 0 2492575.605 10656029.957 23051607.877 10 0 60079 2700.00000 0 -281892.454 11231269.342 22909624.025 10 0 60079 3600.00000 0 -2964077.050 11995273.267 22323161.515 10 0 60079 4500.00000 0 -5490422.272 12920134.268 21303514.550 10 0 60079 5400.00000 0 -7804056.520 13967583.331 19870378.306 10 0 60079 6300.00000 0 -9856909.502 15090585.038 18051476.042 10 0 60079 7200.00000 0 -11611463.619 16235320.799 15882030.728 10 0 60079 8100.00000 0 -13042067.362 17343477.836 13404090.420 10 0 60079 9000.00000 0 -14135756.421 18354748.369 10665719.499 10 0 60079 9900.00000 0 -14892548.431 19209434.205 7720070.654 10 0 60079 10800.00000 0 -15325199.368 19851047.014 4624355.112 10 0 60079 11700.00000 0 -15458432.097 20228794.253 1438730.845 10 0 60079 12600.00000 0 -15327669.984 20299845.129 -1774869.450 10 0 60079 13500.00000 0 -14977329.476 20031279.905 -4953947.408 10 0 60079 14400.00000 0 -14458744.384 19401639.081 -8036660.875 10 0 60079 15300.00000 0 -13827810.426 18402005.761 -10963033.976 10 0 60079 16200.00000 0 -13142450.465 17036574.321 -13676130.936 10 0 60079 17100.00000 0 -12460008.578 15322680.233 -16123170.027 10 0 60079 18000.00000 0 -11834684.028 13290288.824 -18256555.263 10 0 60079 18900.00000 0 -11315114.349 10980963.609 -20034805.373 10 0 60079 19800.00000 0 -10942210.245 8446356.823 -21423361.802 10 0 60079 20700.00000 0 -10747334.105 5746284.884 -22395260.061 10 0 60079 21600.00000 0 -10750899.169 2946468.787 -22931651.660 10 0 60079 22500.00000 0 -10961448.397 116033.368 -23022166.871 10 0 60079 23400.00000 0 -11375251.721 -2675130.726 -22665111.723 10 0 60079 24300.00000 0 -11976438.392 -5359032.990 -21867495.873 10 0 60079 25200.00000 0 -12737658.586 -7872166.643 -20644891.218 10 0 60079 26100.00000 0 -13621246.118 -10157903.051 -19021124.278 10 0 60079 27000.00000 0 -14580833.055 -12168598.312 -17027808.583 10 0 60079 27900.00000 0 -15563348.032 -13867325.397 -14703726.222 10 0 60079 28800.00000 0 -16511313.929 -15229160.886 -12094070.693 10 0 60079 29700.00000 0 -17365347.950 -16241974.025 -9249565.798 10 0 60079 30600.00000 0 -18066758.661 -16906686.719 -6225477.816 10 0 60079 31500.00000 0 -18560130.413 -17236995.069 -3080540.289 10 0 60079 32400.00000 0 -18795786.040 -17258565.694 124187.556 10 0 60079 33300.00000 0 -18732023.997 -17007742.111 3326506.332 10 0 60079 34200.00000 0 -18337035.480 -16529816.819 6464282.752 10 0 60079 35100.00000 0 -17590420.654 -15876942.930 9476653.074 10 0 60079 36000.00000 0 -16484240.024 -15105774.078 12305200.381 10 0 60079 36900.00000 0 -15023556.373 -14274932.483 14895082.951 10 0 60079 37800.00000 0 -13226444.105 -13442411.999 17196092.220 10 0 60079 38700.00000 0 -11123464.956 -12663025.399 19163620.304 10 0 60079 39600.00000 0 -8756631.197 -11986003.018 20759518.966 10 0 60079 40500.00000 0 -6177898.597 -11452843.334 21952834.092 10 0 60079 41400.00000 0 -3447250.719 -11095505.353 22720402.193 10 0 60079 42300.00000 0 -630452.943 -10935018.357 23047297.904 10 0 60079 43200.00000 0 2203431.872 -10980567.169 22927124.258 10 0 60079 44100.00000 0 4984664.455 -11229091.369 22362140.217 10 0 60079 45000.00000 0 7645479.441 -11665415.546 21363222.799 10 0 60079 45900.00000 0 10122656.258 -12262905.669 19949664.048 10 0 60079 46800.00000 0 12359904.841 -12984624.718 18148806.001 10 0 60079 47700.00000 0 14309967.851 -13784939.855 15995519.800 10 0 60079 48600.00000 0 15936352.464 -14611514.309 13531538.015 10 0 60079 49500.00000 0 17214619.923 -15407600.817 10804652.128 10 0 60079 50400.00000 0 18133179.191 -16114540.354 7867789.975 10 0 60079 51300.00000 0 18693551.638 -16674360.870 4777990.485 10 0 60079 52200.00000 0 18910095.825 -17032366.045 1595295.379 10 0 60079 53100.00000 0 18809204.155 -17139604.044 -1618420.485 10 0 60079 54000.00000 0 18428005.582 -16955111.011 -4800656.957 10 0 60079 54900.00000 0 17812629.549 -16447833.295 -7889510.488 10 0 60079 55800.00000 0 17016105.108 -15598145.812 -10824885.404 10 0 60079 56700.00000 0 16095984.663 -14398901.100 -13549670.134 10 0 60079 57600.00000 0 15111793.573 -12855963.427 -16010854.672 10 0 60079 58500.00000 0 14122414.117 -10988204.263 -18160566.850 10 0 60079 59400.00000 0 13183515.008 -8826958.210 -19957006.803 10 0 60079 60300.00000 0 12345135.450 -6414961.326 -21365261.290 10 0 60079 61200.00000 0 11649525.981 -3804815.620 -22357982.038 10 0 60079 62100.00000 0 11129337.156 -1057043.319 -22915915.210 10 0 60079 63000.00000 0 10806232.209 1762188.376 -23028272.084 10 0 60079 63900.00000 0 10689981.757 4583577.630 -22692934.221 10 0 60079 64800.00000 0 10778078.089 7337329.335 -21916489.577 10 0 60079 65700.00000 0 11055884.692 9955818.143 -20714099.275 10 0 60079 66600.00000 0 11497314.032 12376162.947 -19109197.930 10 0 60079 67500.00000 0 12066004.423 14542606.453 -17133033.586 10 0 60079 68400.00000 0 12716945.846 16408601.672 -14824056.286 10 0 60079 69300.00000 0 13398485.648 17938519.395 -12227167.291 10 0 60079 70200.00000 0 14054629.165 19108906.558 -9392843.572 10 0 60079 71100.00000 0 14627537.832 19909244.315 -6376154.692 10 0 60079 72000.00000 0 15060119.092 20342175.404 -3235691.326 10 0 60079 72900.00000 0 15298598.566 20423192.752 -32426.426 10 0 60079 73800.00000 0 15294965.657 20179803.654 3171468.681 10 0 60079 74700.00000 0 15009189.201 19650205.981 6313830.068 10 0 60079 75600.00000 0 14411109.592 18881533.220 9333705.244 10 0 60079 76500.00000 0 13481927.322 17927742.920 12172532.173 10 0 60079 77400.00000 0 12215224.968 16847237.980 14775270.473 10 0 60079 78300.00000 0 10617479.196 15700321.068 17091463.196 10 0 60079 79200.00000 0 8708040.607 14546589.170 19076209.127 10 0 60079 80100.00000 0 6518581.447 13442377.437 20691027.364 10 0 60079 81000.00000 0 4092033.168 12438359.198 21904598.153 10 0 60079 81900.00000 0 1481056.884 11577402.221 22693366.344 10 0 60079 82800.00000 0 -1253890.981 10892770.523 23041996.356 10 0 60079 83700.00000 0 -4046818.979 10406746.555 22943670.279 10 0 60079 84600.00000 0 -6828694.508 10129731.139 22400223.443 10 0 60079 85500.00000 0 -9530069.224 10059858.726 21422114.695 10 0 60080 0.00000 0 -12083728.125 10183144.140 20028231.581 10 0 60080 900.00000 0 -14427254.825 10474155.051 18245532.666 10 0 60080 1800.00000 0 -16505403.838 10897182.160 16108534.920 10 0 60080 2700.00000 0 -18272186.324 11407858.619 13658652.586 10 0 60080 3600.00000 0 -19692579.276 11955160.863 10943401.145 10 0 60080 4500.00000 0 -20743788.231 12483706.868 8015480.299 10 0 60080 5400.00000 0 -21416010.496 12936254.931 4931753.340 10 0 60080 6300.00000 0 -21712666.803 13256297.185 1752142.415 10 0 60080 7200.00000 0 -21650091.646 13390637.648 -1461538.679 10 0 60080 8100.00000 0 -21256695.422 13291844.890 -4646791.107 10 0 60080 9000.00000 0 -20571633.914 12920474.418 -7741652.838 10 0 60080 9900.00000 0 -19643041.632 12246965.448 -10685911.112 10 0 60080 10800.00000 0 -18525904.132 11253130.480 -13422281.001 10 0 60080 11700.00000 0 -17279659.748 9933173.326 -15897526.353 10 0 60080 12600.00000 0 -15965632.647 8294191.309 -18063500.559 10 0 60080 13500.00000 0 -14644406.096 6356139.229 -19878086.478 10 0 60080 14400.00000 0 -13373247.144 4151255.518 -21306017.027 10 0 60080 15300.00000 0 -12203691.487 1722973.718 -22319560.514 10 0 60080 16200.00000 0 -11179390.190 -875635.913 -22899057.627 10 0 60080 17100.00000 0 -10334308.595 -3583830.232 -23033300.069 10 0 60080 18000.00000 0 -9691352.634 -6335481.046 -22719743.895 10 0 60080 18900.00000 0 -9261479.566 -9061592.154 -21964553.908 10 0 60080 19800.00000 0 -9043329.642 -11692941.270 -20782478.632 10 0 60080 20700.00000 0 -9023393.191 -14162737.366 -19196558.630 10 0 60080 21600.00000 0 -9176705.088 -16409183.431 -17237674.042 10 0 60080 22500.00000 0 -9468036.423 -18377838.624 -14943940.271 10 0 60080 23400.00000 0 -9853532.234 -20023682.081 -12359963.639 10 0 60080 24300.00000 0 -10282725.492 -21312793.289 -9535971.566 10 0 60080 25200.00000 0 -10700841.691 -22223579.828 -6526834.234 10 0 60080 26100.00000 0 -11051296.193 -22747502.222 -3390996.916 10 0 60080 27000.00000 0 -11278278.417 -22889266.763 -189343.872 10 0 60080 27900.00000 0 -11329313.322 -22666479.354 3015983.928 10 0 60080 28800.00000 0 -11157691.716 -22108776.101 6162794.042 10 0 60080 29700.00000 0 -10724666.509 -21256468.194 9190047.262 10 0 60080 30600.00000 0 -10001321.994 -20158758.861 12039038.354 10 0 60080 31500.00000 0 -8970037.066 -18871607.908 14654530.050 10 0 60080 32400.00000 0 -7625480.320 -17455333.835 16985818.634 10 0 60080 33300.00000 0 -5975094.620 -15972054.213 18987710.981 10 0 60080 34200.00000 0 -4039050.008 -14483071.474 20621394.704 10 0 60080 35100.00000 0 -1849665.883 -13046313.160 21855185.309 10 0 60080 36000.00000 0 549674.708 -11713933.180 22665136.599 10 0 60080 36900.00000 0 3106074.831 -10530173.728 23035503.094 10 0 60080 37800.00000 0 5759074.543 -9529576.524 22959045.949 10 0 60080 38700.00000 0 8442923.449 -8735617.552 22437176.606 10 0 60080 39600.00000 0 11089082.047 -8159821.867 21479935.206 10 0 60080 40500.00000 0 13628849.455 -7801395.214 20105803.740 10 0 60080 41400.00000 0 15996009.577 -7647387.753 18341356.775 10 0 60080 42300.00000 0 18129386.609 -7673383.084 16220755.609 10 0 60080 43200.00000 0 19975204.160 -7844683.813 13785094.596 10 0 60080 44100.00000 0 21489149.986 -8117943.972 11081611.333 10 0 60080 45000.00000 0 22638060.131 -8443179.691 8162775.198 10 0 60080 45900.00000 0 23401151.905 -8766073.284 5085271.322 10 0 60080 46800.00000 0 23770753.768 -9030473.151 1908899.481 10 0 60080 47700.00000 0 23752501.190 -9180983.311 -1304590.617 10 0 60080 48600.00000 0 23364990.090 -9165532.153 -4492704.585 10 0 60080 49500.00000 0 22638902.383 -8937810.642 -7593425.069 10 0 60080 50400.00000 0 21615640.607 -8459475.474 -10546425.253 10 0 60080 51300.00000 0 20345529.520 -7702022.617 -13294249.702 10 0 60080 52200.00000 0 18885660.904 -6648250.564 -15783438.686 10 0 60080 53100.00000 0 17297472.982 -5293250.112 -17965573.418 10 0 60080 54000.00000 0 15644166.911 -3644877.600 -19798221.403 10 0 60080 54900.00000 0 13988069.579 -1723690.471 -21245763.292 10 0 60080 55800.00000 0 12388053.852 437653.191 -22280085.171 10 0 60080 56700.00000 0 10897124.757 2795506.885 -22881123.080 10 0 60080 57600.00000 0 9560272.671 5296813.935 -23037249.554 10 0 60080 58500.00000 0 8412683.111 7881086.421 -22745495.151 10 0 60080 59400.00000 0 7478377.428 10482702.792 -22011601.109 10 0 60080 60300.00000 0 6769340.384 13033428.905 -20849902.537 10 0 60080 61200.00000 0 6285170.063 15465057.882 -19283044.721 10 0 60080 62100.00000 0 6013263.501 17712059.280 -17341538.310 10 0 60080 63000.00000 0 5929528.931 19714127.709 -15063162.103 10 0 60080 63900.00000 0 5999593.420 21418525.164 -12492225.196 10 0 60080 64800.00000 0 6180453.852 22782119.974 -9678702.864 10 0 60080 65700.00000 0 6422500.613 23773037.897 -6677263.034 10 0 60080 66600.00000 0 6671827.709 24371857.257 -3546202.483 10 0 60080 67500.00000 0 6872731.042 24572298.863 -346313.566 10 0 60080 68400.00000 0 6970288.699 24381382.724 2860296.358 10 0 60080 69300.00000 0 6912913.789 23819046.041 6011409.573 10 0 60080 70200.00000 0 6654771.627 22917239.367 9045903.232 10 0 60080 71100.00000 0 6157958.925 21718539.636 11904931.770 10 0 60080 72000.00000 0 5394352.742 20274338.807 14533063.636 10 0 60080 72900.00000 0 4347050.935 18642684.426 16879350.663 10 0 60080 73800.00000 0 3011342.979 16885862.698 18898309.815 10 0 60080 74700.00000 0 1395169.725 15067825.057 20550798.907 10 0 60080 75600.00000 0 -480948.130 13251565.448 21804770.060 10 0 60080 76500.00000 0 -2584511.035 11496557.255 22635887.036 10 0 60080 77400.00000 0 -4872147.314 9856356.133 23027995.078 10 0 60080 78300.00000 0 -7291181.069 8376467.922 22973434.619 10 0 60080 79200.00000 0 -9781597.625 7092569.758 22473192.951 10 0 60080 80100.00000 0 -12278326.389 6029157.886 21536890.754 10 0 60080 81000.00000 0 -14713747.728 5198678.008 20182603.308 10 0 60080 81900.00000 0 -17020320.969 4601174.070 18436519.107 10 0 60080 82800.00000 0 -19133225.185 4224469.916 16332441.533 10 0 60080 83700.00000 0 -20992903.471 4044876.057 13911142.259 10 0 60080 84600.00000 0 -22547405.003 4028391.786 11219577.841 10 0 60080 85500.00000 0 -23754427.012 4132352.026 8309983.901 10 0 60081 0.00000 0 -24582970.957 4307449.329 5238864.129 10 0 60081 900.00000 0 -25014543.453 4500045.464 2065891.762 10 0 60081 1800.00000 0 -25043849.977 4654674.118 -1147250.869 10 0 60081 2700.00000 0 -24678953.212 4716628.398 -4338077.264 10 0 60081 3600.00000 0 -23940887.799 4634522.352 -7444518.001 10 0 60081 4500.00000 0 -22862748.040 4362716.939 -10406135.264 10 0 60081 5400.00000 0 -21488286.899 3863506.411 -13165305.879 10 0 60081 6300.00000 0 -19870085.502 3108971.213 -15668348.977 10 0 60081 7200.00000 0 -18067370.534 2082417.695 -17866575.635 10 0 60081 8100.00000 0 -16143571.771 779342.534 -19717239.559 10 0 60081 9000.00000 0 -14163722.774 -792119.998 -21184370.147 10 0 60081 9900.00000 0 -12191814.147 -2611287.860 -22239471.697 10 0 60081 10800.00000 0 -10288210.469 -4645555.311 -22862075.426 10 0 60081 11700.00000 0 -8507238.941 -6851525.952 -23040133.963 10 0 60081 12600.00000 0 -6895050.282 -9176607.971 -22770251.078 10 0 60081 13500.00000 0 -5487840.662 -11561005.516 -22057742.682 10 0 60081 14400.00000 0 -4310508.036 -13940023.582 -20916528.294 10 0 60081 15300.00000 0 -3375797.921 -16246590.623 -19368855.433 10 0 60081 16200.00000 0 -2683972.939 -18413894.060 -17444862.504 10 0 60081 17100.00000 0 -2223018.482 -20378019.118 -15181988.816 10 0 60081 18000.00000 0 -1969374.314 -22080481.212 -12624243.278 10 0 60081 18900.00000 0 -1889159.859 -23470546.511 -9821346.073 10 0 60081 19800.00000 0 -1939840.208 -24507244.229 -6827760.049 10 0 60081 20700.00000 0 -2072261.401 -25160986.935 -3701630.820 10 0 60081 21600.00000 0 -2232968.090 -25414731.627 -503656.321 10 0 60081 22500.00000 0 -2366704.831 -25264633.656 2704091.993 10 0 60081 23400.00000 0 -2418994.724 -24720166.677 5859373.209 10 0 60081 24300.00000 0 -2338685.927 -23803704.331 8900982.753 10 0 60081 25200.00000 0 -2080358.150 -22549581.862 11769936.456 10 0 60081 26100.00000 0 -1606487.243 -21002677.388 14410610.047 10 0 60081 27000.00000 0 -889276.345 -19216572.598 16771812.277 10 0 60081 27900.00000 0 87923.935 -17251369.877 18807771.362 10 0 60081 28800.00000 0 1329666.478 -15171256.976 20479016.251 10 0 60081 29700.00000 0 2827970.354 -13041920.480 21753136.364 10 0 60081 30600.00000 0 4562414.529 -10927915.313 22605405.838 10 0 60081 31500.00000 0 6500759.890 -8890099.103 23019260.793 10 0 60081 32400.00000 0 8600075.018 -6983237.367 22986620.839 10 0 60081 33300.00000 0 10808320.369 -5253878.232 22508048.779 10 0 60081 34200.00000 0 13066326.474 -3738584.336 21592745.270 10 0 60081 35100.00000 0 15310085.305 -2462594.734 20258378.122 10 0 60081 36000.00000 0 17473260.886 -1438971.961 18530748.778 10 0 60081 36900.00000 0 19489815.579 -668269.360 16443301.542 10 0 60081 37800.00000 0 21296643.422 -138732.206 14036483.996 10 0 60081 38700.00000 0 22836100.981 172976.085 11356970.001 10 0 60081 39600.00000 0 24058329.965 300553.395 8456759.500 10 0 60081 40500.00000 0 24923274.079 286395.662 5392171.965 10 0 60081 41400.00000 0 25402305.043 179561.448 2222752.722 10 0 60081 42300.00000 0 25479388.762 33450.826 -989886.512 10 0 60081 43200.00000 0 25151741.957 -96702.526 -4183269.986 10 0 60081 44100.00000 0 24429950.902 -156418.949 -7295279.119 10 0 60081 45000.00000 0 23337546.792 -94529.469 -10265367.945 10 0 60081 45900.00000 0 21910055.253 134408.003 -13035748.256 10 0 60081 46800.00000 0 20193559.898 567936.503 -15552520.539 10 0 60081 47700.00000 0 18242840.390 1233865.084 -17766727.951 10 0 60081 48600.00000 0 16119163.490 2148849.894 -19635312.351 10 0 60081 49500.00000 0 13887820.004 3317452.316 -21121953.553 10 0 60081 50400.00000 0 11615511.177 4731714.895 -22197775.458 10 0 60081 51300.00000 0 9367694.029 6371273.796 -22841905.578 10 0 60081 52200.00000 0 7205996.582 8204003.899 -23041877.435 10 0 60081 53100.00000 0 5185810.674 10187170.110 -22793868.489 10 0 60081 54000.00000 0 3354162.245 12269037.257 -22102769.424 10 0 60081 54900.00000 0 1747947.121 14390871.709 -20982083.874 10 0 60081 55800.00000 0 392604.788 16489251.375 -19453660.876 10 0 60081 56700.00000 0 -698715.829 18498587.919 -17547265.461 10 0 60081 57600.00000 0 -1525465.279 20353756.050 -15299995.896 10 0 60081 58500.00000 0 -2099465.913 21992720.214 -12755558.962 10 0 60081 59400.00000 0 -2444158.872 23359049.066 -9963417.454 10 0 60081 60300.00000 0 -2593359.046 24404212.822 -6977826.509 10 0 60081 61200.00000 0 -2589571.869 25089567.547 -3856777.680 10 0 60081 62100.00000 0 -2481944.239 25387943.605 -660871.438 10 0 60081 63000.00000 0 -2323937.053 25284771.999 2547859.846 10 0 60081 63900.00000 0 -2170818.582 24778701.790 5707155.292 10 0 60081 64800.00000 0 -2077085.177 23881683.281 8755731.750 10 0 60081 65700.00000 0 -2093918.715 22618513.710 11634469.489 10 0 60081 66600.00000 0 -2266788.421 21025864.890 14287554.386 10 0 60081 67500.00000 0 -2633298.471 19150833.601 16663554.753 10 0 60081 68400.00000 0 -3221372.307 17049075.346 18716412.468 10 0 60081 69300.00000 0 -4047850.369 14782599.180 20406329.748 10 0 60081 70200.00000 0 -5117560.654 12417315.123 21700535.161 10 0 60081 71100.00000 0 -6422901.757 10020435.631 22573914.744 10 0 60081 72000.00000 0 -7943956.807 7657838.455 23009496.661 10 0 60081 72900.00000 0 -9649134.709 5391499.557 22998780.451 10 0 60081 73800.00000 0 -11496313.290 3277101.737 22541904.709 10 0 60081 74700.00000 0 -13434438.127 1361917.415 21647649.829 10 0 60081 75600.00000 0 -15405511.885 -316947.372 20333275.342 10 0 60081 76500.00000 0 -17346892.611 -1733875.445 18624194.262 10 0 60081 77400.00000 0 -19193806.276 -2875573.001 16553489.843 10 0 60081 78300.00000 0 -20881969.574 -3741381.841 14161283.077 10 0 60081 79200.00000 0 -22350213.858 -4343056.693 11493962.161 10 0 60081 80100.00000 0 -23543000.553 -4704017.306 8603288.013 10 0 60081 81000.00000 0 -24412722.348 -4858107.105 5545392.561 10 0 60081 81900.00000 0 -24921693.090 -4847911.117 2379688.902 10 0 60081 82800.00000 0 -25043741.905 -4722704.630 -832285.412 10 0 60081 83700.00000 0 -24765343.618 -4536120.001 -4028069.150 10 0 60081 84600.00000 0 -24086236.956 -4343631.126 -7145498.237 10 0 60081 85500.00000 0 -23019503.645 -4199963.111 -10123922.052 10 0 60082 0.00000 0 -21591104.541 -4156537.944 -12905390.366 10 0 60082 900.00000 0 -19838891.034 -4259065.518 -15435788.458 10 0 60082 1800.00000 0 -17811134.980 -4545383.167 -17665893.851 10 0 60082 2700.00000 0 -15564636.321 -5043636.132 -19552338.608 10 0 60082 3600.00000 0 -13162489.608 -5770876.923 -21058454.436 10 0 60082 4500.00000 0 -10671602.379 -6732143.537 -22154985.677 10 0 60082 5400.00000 0 -8160069.332 -7920056.155 -22820656.291 10 0 60082 6300.00000 0 -5694511.888 -9314949.943 -23042580.189 10 0 60082 7200.00000 0 -3337493.907 -10885538.928 -22816507.379 10 0 60082 8100.00000 0 -1145120.796 -12590083.539 -22146901.624 10 0 60082 9000.00000 0 835078.700 -14378013.256 -21046848.517 10 0 60082 9900.00000 0 2565900.747 -16191936.657 -19537796.065 10 0 60082 10800.00000 0 4021773.092 -17969954.942 -17649133.106 10 0 60082 11700.00000 0 5189567.134 -19648182.256 -15417613.840 10 0 60082 12600.00000 0 6068883.061 -21163367.350 -12886639.777 10 0 60082 13500.00000 0 6671797.921 -22455506.915 -10105413.131 10 0 60082 14400.00000 0 7022088.927 -23470341.159 -7127978.174 10 0 60082 15300.00000 0 7153966.297 -24161627.059 -4012169.336 10 0 60082 16200.00000 0 7110370.521 -24493094.100 -818486.675 10 0 60082 17100.00000 0 6940907.083 -24440000.534 2391079.269 10 0 60082 18000.00000 0 6699506.898 -23990225.030 5554250.150 10 0 60082 18900.00000 0 6441912.028 -23144848.129 8609666.517 10 0 60082 19800.00000 0 6223093.439 -21918199.289 11498075.089 10 0 60082 20700.00000 0 6094710.138 -20337367.647 14163473.590 10 0 60082 21600.00000 0 6102717.084 -18441196.914 16554191.312 10 0 60082 22500.00000 0 6285222.831 -16278806.307 18623884.886 10 0 60082 23400.00000 0 6670687.201 -13907698.869 20332430.567 10 0 60082 24300.00000 0 7276534.968 -11391535.519 21646696.508 10 0 60082 25200.00000 0 8108244.126 -8797666.698 22541180.773 10 0 60082 26100.00000 0 9158947.552 -6194523.348 22998503.377 10 0 60082 27000.00000 0 10409565.567 -3648974.540 23009743.320 10 0 60082 27900.00000 0 11829464.941 -1223760.353 22574614.284 10 0 60082 28800.00000 0 13377618.018 1024894.535 21701475.485 10 0 60082 29700.00000 0 15004214.882 3049388.448 20407177.078 10 0 60082 30600.00000 0 16652662.562 4812484.868 18716742.394 10 0 60082 31500.00000 0 18261888.885 6288617.341 16662892.242 10 0 60082 32400.00000 0 19768855.605 7464703.412 14285419.479 10 0 60082 33300.00000 0 21111176.241 8340434.051 11630424.930 10 0 60082 34200.00000 0 22229729.120 8928026.846 8749428.609 10 0 60082 35100.00000 0 23071155.843 9251453.716 5698372.834 10 0 60082 36000.00000 0 23590139.694 9345176.023 2536536.237 10 0 60082 36900.00000 0 23751367.304 9252440.880 -674620.176 10 0 60082 37800.00000 0 23531090.014 9023211.194 -3872652.170 10 0 60082 38700.00000 0 22918218.035 8711817.719 -6995352.673 10 0 60082 39600.00000 0 21914900.219 8374433.386 -9981968.840 10 0 60082 40500.00000 0 20536564.040 8066477.802 -12774391.209 10 0 60082 41400.00000 0 18811413.277 7840062.918 -15318290.972 10 0 60082 42300.00000 0 16779403.902 7741589.006 -17564182.455 10 0 60082 43200.00000 0 14490740.799 7809593.639 -19468389.637 10 0 60082 44100.00000 0 12003958.067 8072945.467 -20993897.643 10 0 60082 45000.00000 0 9383663.189 8549459.781 -22111072.604 10 0 60082 45900.00000 0 6698039.269 9244994.848 -22798236.109 10 0 60082 46800.00000 0 4016209.427 10153067.529 -23042083.441 10 0 60082 47700.00000 0 1405573.050 11255004.698 -22837937.909 10 0 60082 48600.00000 0 -1070775.611 12520624.324 -22189836.816 10 0 60082 49500.00000 0 -3356439.643 13909417.800 -21110447.814 10 0 60082 50400.00000 0 -5403823.757 15372184.007 -19620817.602 10 0 60082 51300.00000 0 -7175864.132 16853046.607 -17749958.116 10 0 60082 52200.00000 0 -8647313.085 18291770.007 -15534278.363 10 0 60082 53100.00000 0 -9805526.453 19626276.801 -13016873.064 10 0 60082 54000.00000 0 -10650722.480 20795261.024 -10246681.984 10 0 60082 54900.00000 0 -11195703.069 21740787.465 -7277536.337 10 0 60082 55800.00000 0 -11465050.902 22410767.879 -4167110.989 10 0 60082 56700.00000 0 -11493837.729 22761209.988 -975802.953 10 0 60082 57600.00000 0 -11325899.652 22758144.698 2234441.861 10 0 60082 58500.00000 0 -11011753.390 22379150.622 5401330.551 10 0 60082 59400.00000 0 -10606242.375 21614411.802 8463430.326 10 0 60082 60300.00000 0 -10166012.725 20467264.256 11361357.302 10 0 60082 61200.00000 0 -9746925.994 18954208.271 14038923.985 10 0 60082 62100.00000 0 -9401518.078 17104385.765 16444223.486 10 0 60082 63000.00000 0 -9176611.377 14958544.218 18530629.903 10 0 60082 63900.00000 0 -9111180.734 12567529.958 20257696.081 10 0 60082 64800.00000 0 -9234562.829 9990372.898 21591932.082 10 0 60082 65700.00000 0 -9565084.288 7292041.595 22507450.048 10 0 60082 66600.00000 0 -10109166.262 4540960.888 22986463.577 10 0 60082 67500.00000 0 -10860943.434 1806394.067 23019632.467 10 0 60082 68400.00000 0 -11802414.061 -844203.052 22606246.364 10 0 60082 69300.00000 0 -12904115.658 -3347747.545 21754243.675 10 0 60082 70200.00000 0 -14126299.107 -5647908.984 20480064.994 10 0 60082 71100.00000 0 -15420553.208 -7697205.439 18808343.193 10 0 60082 72000.00000 0 -16731812.722 -9458729.535 16771435.273 10 0 60082 72900.00000 0 -18000666.786 -10907433.380 14408804.027 10 0 60082 73800.00000 0 -19165871.583 -12030919.266 11766260.462 10 0 60082 74700.00000 0 -20166962.130 -12829703.453 8895080.801 10 0 60082 75600.00000 0 -20946853.429 -13316942.326 5851014.510 10 0 60082 76500.00000 0 -21454321.115 -13517632.768 2693202.258 10 0 60082 77400.00000 0 -21646256.369 -13467320.800 -516975.173 10 0 60082 78300.00000 0 -21489599.028 -13210373.441 -3717094.303 10 0 60082 79200.00000 0 -20962866.210 -12797887.465 -6844908.843 10 0 60082 80100.00000 0 -20057210.682 -12285324.191 -9839567.452 10 0 60082 81000.00000 0 -18776963.185 -11729971.324 -12642804.797 10 0 60082 81900.00000 0 -17139634.705 -11188340.153 -15200081.881 10 0 60082 82800.00000 0 -15175377.703 -10713609.203 -17461652.666 10 0 60082 83700.00000 0 -12925928.200 -10353223.329 -19383535.724 10 0 60082 84600.00000 0 -10443072.513 -10146750.441 -20928371.762 10 0 60082 85500.00000 0 -7786702.500 -10124086.962 -22066150.263 99